Location: Bonningues
(50.7927°N, 2.0150°E)
Time: 23:56:35
(UTC+00:00)

NOSS 3-2 (C) - Pass Details

Date: 08 August 2020
Orbit: 793 x 1419 km, 63.4° (Epoch: 21 September)

Event Time Altitude Azimuth Distance (km) Brightness Sun altitude
Exits shadow 23:23:19 - 242° (WSW) 2,623 5.6 -23.0°
Reaches altitude 10° 23:23:34 10° 243° (WSW) 2,531 5.5 -23.0°
Maximum altitude 23:29:22 60° 323° (NW) 1,103 4.0 -23.1°
Drops below altitude 10° 23:36:08 10° 43° (NE) 2,938 6.5 -23.3°
Sets 23:39:04 0° 47° (NE) 3,999 7.2 -23.3°
